[[{"header":{"parameterUnit":"m.s-1","parameterCategory":1,"la1":30.2992,"la2":30.254,"lo1":-89.0895,"lo2":-89.0443,"dy":0.0025,"dx":0.0025,"nx":19,"ny":19,"refTime":"2026-04-10T09:00:00:Z","depth":0,"parameterNumber":2,"parameterNumberName":"U-component_of_WINDS"},"data":[0,0,0,-2.3134,-2.3135,-2.3167,-2.3167,-2.3227,-2.3228,0,0,0,0,0,0,0,0,0,0,0,-2.3136,-2.3137,-2.3134,-2.3135,-2.3167,-2.3167,-2.3227,-2.3228,0,0,0,0,0,0,0,0,0,0,0,-2.3136,-2.3137,-2.3138,-2.3135,-2.3167,-2.3167,-2.3227,-2.3196,0,0,0,0,0,0,0,0,0,0,-2.3161,-2.3175,-2.3137,-2.3138,-2.3136,-2.3167,-2.3167,-2.3194,-2.3198,-2.3221,0,-2.3244,0,-2.3237,-2.3233,-2.3233,0,0,0,-2.3127,-2.3172,-2.317,-2.3138,-2.3136,-2.3167,-2.315,-2.3196,-2.32,-2.3226,-2.3245,-2.3247,-2.3238,-2.3234,-2.3234,-2.3394,-2.3395,0,0,-2.3125,-2.3148,-2.3167,-2.3173,-2.317,-2.3149,-2.3151,-2.3198,-2.3221,-2.3245,-2.3248,-2.3239,-2.3234,-2.3235,-2.3393,-2.3395,0,0,0,-2.3125,-2.3148,-2.3144,-2.3171,-2.3176,-2.315,-2.3153,-2.3219,-2.3215,-2.3248,-2.324,-2.3234,-2.3235,-2.3392,-2.3394,-2.3473,0,0,0,-2.3124,-2.3148,-2.3144,-2.3158,-2.3175,-2.3198,-2.3173,-2.3212,-2.3217,-2.3239,-2.3235,-2.3236,-2.3391,-2.3393,-2.3468,-2.3507,0,0,0,-2.313,-2.3148,-2.3157,-2.316,-2.3174,-2.3196,-2.3195,-2.3213,-2.3212,-2.3233,-2.3236,-2.339,-2.3392,-2.3464,-2.3499,-2.3555,0,0,0,-2.3144,-2.3228,-2.3159,-2.3249,-2.3174,-2.3245,-2.3195,-2.3247,-2.3275,-2.3235,-2.3391,-2.3394,-2.3462,-2.3495,-2.3551,-2.3607,-2.3632,0,0,-2.3263,-2.3243,-2.3294,-2.3233,-2.3323,-2.3238,-2.3339,-2.3343,-2.3323,-2.3372,-2.3375,-2.347,-2.3499,-2.3554,-2.3767,-2.3788,0,0,0,-2.334,-2.3377,-2.3396,-2.3423,-2.3428,-2.3434,-2.3419,-2.342,-2.346,-2.3353,-2.3504,-2.3521,-2.3553,-2.3578,-2.3596,-2.3621,-2.3406,-2.3406,-2.3406,-2.3543,-2.3513,-2.3596,-2.357,-2.3597,-2.3581,-2.36,-2.3598,-2.3561,-2.3597,-2.3611,-2.3744,-2.3775,-2.3788,-2.3815,-2.3638,-2.3639,-2.3639,-2.3639,-2.3715,-2.3763,-2.371,-2.3771,-2.3739,-2.379,-2.3777,-2.3749,-2.3792,-2.3731,-2.3757,-2.3693,-2.3811,-2.3833,-2.3645,-2.3644,-2.3643,-2.3643,-2.3642,-2.3844,-2.3862,-2.3861,-2.3897,-2.3928,-2.3898,-2.3942,-2.3911,-2.3882,-2.3909,-2.392,-2.3918,-2.3913,-2.3916,-2.3916,-2.3917,-2.3917,-2.3918,-2.3918,-2.3979,-2.3975,-2.4016,-2.4026,-2.4039,-2.4053,-2.4036,-2.4048,-2.4054,-2.4028,-2.4028,-2.3987,-2.3828,-2.3789,-2.3925,-2.3924,-2.3923,-2.3922,-2.3922,-2.4164,-2.4117,-2.4179,-2.4192,-2.4201,-2.4234,-2.4194,-2.422,-2.4226,-2.4248,-2.4201,-2.4089,-2.4067,-2.4052,-2.402,-2.4207,-2.4207,-2.4207,-2.4207,-2.4273,-2.4258,-2.4314,-2.4337,-2.4355,-2.4325,-2.4396,-2.4384,-2.4364,-2.4365,-2.4334,-2.4288,-2.4275,-2.426,-2.4241,-2.421,-2.4442,-2.4442,-2.4443,-2.4385,-2.4371,-2.4437,-2.4416,-2.4421,-2.4426,-2.4491,-2.4519,-2.4487,-2.4452,-2.4366,-2.4356,-2.4281,-2.4258,-2.4221,-2.4193,-2.4135,0,0]},{"header":{"parameterUnit":"m.s-1","parameterCategory":1,"la1":30.2992,"la2":30.254,"lo1":-89.0895,"lo2":-89.0443,"dy":0.0025,"dx":0.0025,"nx":19,"ny":19,"refTime":"2026-04-10T09:00:00:Z","depth":0,"parameterNumber":3,"parameterNumberName":"V-component_of_WINDS"},"data":[0,0,0,0.7924,0.7925,0.7951,0.7951,0.7985,0.7985,0,0,0,0,0,0,0,0,0,0,0,0.7917,0.7918,0.7924,0.7925,0.7951,0.7951,0.7985,0.7985,0,0,0,0,0,0,0,0,0,0,0,0.7917,0.7918,0.7918,0.7925,0.7951,0.7951,0.7985,0.7965,0,0,0,0,0,0,0,0,0,0,0.7939,0.7934,0.7917,0.7918,0.7925,0.7951,0.7951,0.7964,0.7966,0.7973,0,0.7981,0,0.7984,0.7987,0.7988,0,0,0,0.7924,0.7932,0.7938,0.7918,0.7925,0.7951,0.7939,0.7965,0.7967,0.7976,0.7981,0.7983,0.7984,0.7988,0.7988,0.8036,0.8037,0,0,0.7922,0.7922,0.7937,0.794,0.7937,0.7938,0.794,0.7966,0.7972,0.7981,0.7983,0.7985,0.7988,0.7988,0.8036,0.8036,0,0,0,0.7919,0.7921,0.7927,0.7939,0.7943,0.7939,0.7941,0.797,0.7972,0.7984,0.7985,0.7988,0.7989,0.8036,0.8036,0.805,0,0,0,0.7918,0.7919,0.7926,0.7927,0.7943,0.7957,0.7944,0.797,0.7973,0.7985,0.7988,0.7989,0.8035,0.8036,0.8049,0.8056,0,0,0,0.7915,0.7919,0.7923,0.7927,0.7938,0.7957,0.796,0.7971,0.7974,0.7988,0.7989,0.8035,0.8036,0.8048,0.8055,0.8069,0,0,0,0.7912,0.7934,0.7923,0.7949,0.7938,0.7966,0.796,0.7981,0.7994,0.7988,0.8035,0.8036,0.8048,0.8054,0.8068,0.8082,0.8087,0,0,0.794,0.7938,0.7953,0.7944,0.7974,0.7962,0.7993,0.8005,0.8006,0.8026,0.8027,0.8049,0.8055,0.8069,0.8118,0.8123,0,0,0,0.7962,0.7973,0.7981,0.7993,0.8003,0.8012,0.8019,0.8023,0.8041,0.8016,0.8058,0.8062,0.807,0.8076,0.808,0.8087,0.8039,0.8039,0.8039,0.8001,0.8002,0.8027,0.8031,0.8043,0.8051,0.8061,0.8067,0.8064,0.8074,0.808,0.8109,0.8117,0.812,0.8127,0.8087,0.8087,0.8087,0.8087,0.8042,0.8058,0.8053,0.8076,0.8077,0.8095,0.8103,0.81,0.8117,0.8105,0.8112,0.8099,0.8125,0.8131,0.8088,0.8088,0.8087,0.8087,0.8087,0.8068,0.8076,0.8082,0.8101,0.8115,0.8118,0.8135,0.8134,0.8134,0.8141,0.8148,0.8147,0.8147,0.8144,0.8145,0.8145,0.8145,0.8145,0.8145,0.8093,0.8099,0.8114,0.8127,0.8135,0.8146,0.8154,0.8162,0.8171,0.8169,0.8169,0.8164,0.8127,0.8118,0.8146,0.8146,0.8146,0.8146,0.8146,0.8135,0.8125,0.8148,0.8157,0.8172,0.8187,0.8186,0.8203,0.8209,0.8217,0.8211,0.8184,0.8181,0.8178,0.8171,0.8211,0.8211,0.8211,0.8211,0.8157,0.8156,0.8179,0.8193,0.8206,0.8208,0.8234,0.824,0.8245,0.8249,0.8243,0.8232,0.8229,0.8228,0.8224,0.8217,0.8269,0.8269,0.8269,0.8182,0.8183,0.8205,0.821,0.8222,0.8232,0.8256,0.8272,0.8275,0.8271,0.8252,0.8249,0.8233,0.8227,0.8223,0.8216,0.8203,0,0]}]]